Погода Чимбай

Погода Чимбай : погода сейчас, прогноз погоды и архив. Всё, что Вы хотите узнать о погоде Чимбай!

Хотите узнать прогноз погоды Чимбай? Тогда Вам сюда: Погода Чимбай

Поиск расширенной информации на нашем сайте:

Другие новости

Новости СМИ2

Главная страница сайта

Новости сайта

03.07.2017

Напоминаем, что на нашем специализированном сайте Метеоцентр.Азия вы можете получить высокодетализированные автоматические прогнозы погоды по пунктам России, СНГ и мира в авиационном формате (включающие направление и скорость ветра, видимость, явления погоды, количество и форму облачности, нижнюю и верхнюю границу облачности).


Погода Чимбай - сегодня

Время (UTC), дата Ветер
(°,м/с) 
Видим.   Явления Облачность Т
(°С)
Тd
(°С)
f(%) Тe
(°С)
Pmin
(гПа)
dP
(гПа)
Po
(мм)
O2
(г/м3)
Тmin Tmax R s Состояние
почвы
00 17.04.18 010 (С) н/о    3/0 средняя 
[Ac trans]
+5.9 -1 61 +7  1020.4  0.2  759  300           
03 17.04.18 310 (СЗ) 20000 м    ясно 
+6.7 +0.6 65 +8  1021.6  1.3  760  299           
06 17.04.18 250 (З) 20000 м    ясно 
+15.3 -0.7 33 +16  1022.3  0.9  761  290  +4.5         
09 17.04.18 280 (З) 20000 м    6/6 1000 м 
[Cu med, cong]
+17 -6.4 20 +17  1022.6  0.4  761  289           
12 17.04.18 300 (СЗ) 20000 м    6/6 1000 м 
[Cu hum]
+17.7 -7.1 18 +17  1021.7  -0.9  760  288           
15 17.04.18 290 (З) 20000 м    4/0 средняя 
[Ac trans]
+14.1 -4.1 28 +15  1022.5  0.7  761  292    +18.6       
18 17.04.18 180 (Ю) н/о    ясно 
+7.5 -3.3 46 +8  1025.1  2.4  763  300    +18.6       
21 17.04.18 210 (ЮЗ) н/о    ясно 
+7.2 -3 48 +8  1025.7  0.6  763  300           
00 18.04.18 250 (З) н/о    ясно 
+5.2 -1.6 61 +6  1026.2  0.3  763  302           
03 18.04.18 280 (З) 20000 м    ясно 
+10 +0.6 52 +11  1026.8  0.8  764  297           
06 18.04.18 350 (С) 20000 м    4/0 средняя 
[Ac trans]
+17.7 -2.5 25 +19  1026.9  0.3  764  289  +4.7         
09 18.04.18 240 (ЮЗ) 20000 м    8/8 1000 м 
[Cu med, cong]
+18 -3.8 22 +19  1026.2  -0.7  764  289           
12 18.04.18 200 (Ю) 20000 м    8/8 1000 м 
[Cu med, cong]
+18.6 -3.8 22 +20  1024.9  -1.3  763  288           
15 18.04.18 тихо ()   20000 м    6/0 средняя 
[Ac trans]
+13.6 -1.4 35 +14  1024.4  -0.6  762  293    +20.8       
18 18.04.18 080 (В) н/о    8/0 средняя 
[Ac trans]
+9.9 +1.3 55 +11  1024.9  0.4  763  296    +20.8       
21 18.04.18 170 (Ю) н/о    3/0 средняя 
[Ac trans]
+9.2 +0.6 55 +10  1023.8  -1.1  762  297           
00 19.04.18 120 (ЮВ) н/о    4/0 средняя 
[Ac trans]
+5 -0.3 69 +6  1022.8  -1.1  761  301           
03 19.04.18 240 (ЮЗ) 20000 м    4/0 средняя 
[Ac trans]
+10.1 +0.6 52 +11  1022.1  -0.6  761  295           
06 19.04.18 200 (Ю) 20000 м    8/0 средняя, верхняя 
[Ac trans|Ci sp]
+18.2 -1.7 26 +19  1021.7  -0.1  760  287  +4.5         
09 19.04.18 190 (Ю) 20000 м    9/6 1000 м средняя 
[Cu med, cong|Ac trans]
+19.3 -6.7 17 +20  1021.3  -0.4  760  287           
12 19.04.18 200 (Ю) 20000 м    10/0 средняя 
[Ac As]
+19.8 -4.4 19 +21  1018.7  -2.6  758  285           
15 19.04.18 тихо ()   20000 м    10/10 600 м 
[Sc]
+15 -2.7 29 +15  1018.3  -0.5  758  290    +21.4       
18 19.04.18 тихо ()   н/о    10/10 600 м 
[Sc]
+11.2 -0.5 44 +11  1018.2  -0.3  758  293    +21.4       
21 19.04.18 130 (ЮВ) н/о    10/10 600 м 
[Sc]
+12.3 -2.2 36 +13  1016.6  -1.4  757  292           
00 20.04.18 120 (ЮВ) н/о    10/10 600 м 
[Sc]
+11 -0.7 44 +11  1015.9  -0.9  756  293           
Время (UTC), дата Ветер
(°,м/с) 
Видим.   Явления Облачность Т
(°С)
Тd
(°С)
f(%) Тe
(°С)
Pmin
(гПа)
dP
(гПа)
Po
(мм)
O2
(г/м3)
Тmin Tmax R s Состояние
почвы

Для получения пояснительной информации подведите курсор к названию столбца.

ПОГОДА Чимбай - архив

Всё, что Вы хотите узнать о погоде Чимбай - удобно и подробно!

Выберите нужную дату (начиная с 1 января 2015* года) и нажмите кнопку "Найти".
Будут отображены архивные сводки погоды по пункту Чимбай, начиная с указанной даты.


Отображать данные в формате CSV (для использования в таблицах Excel)


Внимание! Наш архив погоды предназначен исключительно для личного некоммерческого использования в познавательных целях. Если Вам необходимы официальные справки о состоянии погоды (для производственных, юридических, коммерческих и т.п. целей), обращайтесь в органы Росгидромета.

*Примечание: данная дата относится к архиву по метеостанциям СССР (Россия, СНГ, Балтия).
Архив по метеостанциям Зарубежной Европы и Азии (кроме Китая) хранится 10 дней, по другим регионам земного шара (Китай, Африка, Америка, Австралия, Океания) - 1 день.

Чимбай - район местоположения метеостанции


Название, широта, долгота, высота метеостанции:
Чимбай 42.9°ш. 59.8°д. 66 м над ур. моря [Узбекистан]

Дополнительная информация

В oтличие oт бoльшинства пoгoдных сайтoв мы публикуем пoдрoбную метеoинфoрмацию в детальнoм прoфессиoнальнoм фoрмате.

Характеристики температуры и влажнoсти вoздуха измеряются на высoте 2 м в тени вдали oт зданий и деревьев.
Скoрoсть ветра измеряется на высoте 10 м (на урoвне рoста челoвека скoрoсть ветра ниже в 1.5-2 раза). Если метеoстанция нахoдится в гoрoде или в лесу, тo скoрoсть ветра занижена на 2-4 м/с пo сравнению с oткрытым местoм. Скoрoсть ветра над акватoриями крупных рек и oзёр, а также на вершинах хoлмoв на 2-5 м/с выше, чем в oбычных услoвиях.
Атмoсфернoе давление в разных тoчках местнoсти мoжет значительнo oтличаться oт давления на метеoстанции, в зависимoсти oт услoвий рельефа (при пoдъёме на 10 м давление пoнижается примернo на 1 мм рт.ст.).